Theta_e
307 307 308 308 308 309 309 310 311 311 311 311 311 312 312 313 315 317 317 317 316 318 318 330 340 346 352 345 340 340 349 351 348 347 348 348 349 349 349 349 346 350 347 346 347
308 307 307 307 307 308 308 309 309 310 311 312 312 312 312 312 313 316 318 318 317 316 324 323 333 349 353 347 340 343 345 347 343 343 342 346 348 349 350 350 350 349 348 348 348
310 309 308 308 308 308 308 308 309 309 310 311 312 312 312 312 312 320 323 325 322 317 322 325 329 341 343 347 343 344 345 343 343 341 344 348 349 348 350 350 350 350 350 348 350
310 311 311 309 309 309 309 308 308 309 310 310 311 311 312 312 314 324 324 323 318 323 324 324 327 329 332 341 344 346 343 342 342 341 341 345 349 349 348 348 346 347 346 347 350
314 312 311 311 311 310 310 309 309 309 308 309 310 310 310 311 316 319 323 322 322 323 322 324 328 324 327 332 343 343 343 342 342 342 341 342 345 348 348 348 349 349 348 345 347
317 317 316 313 312 312 312 311 310 310 309 309 310 309 309 310 320 320 319 321 322 321 321 324 324 325 327 332 342 342 341 341 342 341 341 340 341 344 348 348 349 350 349 348 346
316 317 317 317 316 313 313 314 312 311 310 309 309 309 309 316 320 321 322 321 321 322 322 321 322 327 330 330 336 341 337 341 342 340 340 339 345 349 349 348 349 350 350 349 348
314 314 314 315 316 317 314 315 313 311 311 310 310 309 311 316 318 320 320 322 323 323 323 324 320 324 327 330 326 325 334 341 340 340 338 336 346 348 348 346 347 349 349 348 347
310 312 312 313 313 316 317 316 312 314 317 314 310 311 315 317 320 322 321 324 324 325 326 324 326 326 327 324 321 321 323 326 327 335 340 340 341 347 347 347 346 345 346 346 346
306 308 310 312 313 314 318 314 315 319 322 321 320 322 319 319 324 325 322 325 325 325 328 325 326 321 319 318 321 322 325 326 331 341 341 340 341 344 347 347 347 347 346 346 345
304 303 304 309 311 314 318 314 314 317 315 316 321 317 319 321 322 327 323 323 322 323 321 322 321 324 321 319 321 322 323 324 328 336 341 340 340 343 345 347 347 347 347 347 346
305 304 303 306 308 313 313 313 313 311 310 313 315 317 318 320 325 328 324 323 321 319 318 319 320 321 322 322 322 322 323 324 339 342 342 342 341 339 338 345 346 346 346 346 346
306 305 305 305 309 311 312 314 313 312 310 312 314 315 316 317 319 323 326 325 320 318 319 319 321 323 324 324 324 322 322 324 328 341 341 343 344 341 338 338 340 345 345 344 345
306 306 306 306 309 308 313 313 313 313 308 312 313 315 315 316 315 320 327 324 320 320 319 319 321 323 323 324 324 322 324 325 328 336 341 339 344 343 341 338 337 340 343 343 344
304 305 306 305 305 306 310 312 312 312 319 322 319 319 317 317 320 322 324 323 321 322 321 323 323 323 323 323 324 323 324 325 328 338 339 341 341 340 343 343 338 339 340 342 343
304 304 305 306 306 308 308 311 312 311 316 318 321 317 316 316 320 324 324 326 325 324 323 323 325 324 324 324 324 324 322 323 325 330 339 338 343 343 344 343 341 340 340 341 342
305 304 303 304 306 307 307 311 308 312 316 323 318 316 316 315 317 320 326 325 325 324 325 324 324 323 324 322 322 322 319 321 323 324 328 335 343 342 341 343 342 342 342 341 341
304 303 303 303 304 305 309 308 311 315 316 316 316 319 319 317 316 318 319 327 325 322 324 324 325 323 323 324 323 319 320 320 321 325 326 328 342 341 338 340 343 344 344 343 340
303 303 303 303 304 308 309 310 310 313 314 315 315 318 317 320 317 317 317 320 326 321 323 322 324 325 324 324 324 321 319 319 319 324 326 328 333 334 337 337 341 344 345 343 341
302 303 302 305 308 310 307 311 310 313 314 315 315 316 317 317 318 317 317 319 319 321 320 321 323 323 326 323 323 323 318 320 315 320 322 324 330 332 336 339 339 343 344 343 341
303 305 302 307 305 309 310 309 312 312 313 313 314 314 314 316 316 316 317 319 320 321 321 322 320 323 324 325 324 322 320 318 318 319 323 323 325 326 329 336 339 342 345 343 341
303 302 302 306 303 305 310 309 311 311 313 313 313 314 314 314 315 315 317 318 319 318 318 318 319 322 322 322 324 325 323 319 322 319 320 324 326 328 327 334 338 339 342 342 341
302 304 303 306 304 306 309 310 312 313 312 312 313 313 313 315 316 316 317 319 316 319 318 320 320 321 319 320 322 323 323 322 314 316 322 324 324 324 324 337 339 339 340 341 342
303 302 304 305 306 305 307 310 310 310 310 311 311 312 313 315 316 317 317 317 314 315 320 317 320 320 324 323 323 323 325 322 321 321 321 322 322 323 325 333 336 340 341 342 343
303 303 303 304 304 305 306 307 309 309 310 310 310 311 314 314 315 317 315 313 314 316 314 314 317 318 319 323 324 325 326 325 322 322 323 321 319 320 320 325 333 339 340 341 341
303 303 303 304 304 304 304 306 308 309 309 309 310 310 312 313 313 313 312 311 311 313 312 313 317 318 325 324 324 325 325 326 325 324 323 320 321 319 321 323 327 335 340 339 338
303 303 304 304 303 303 302 305 305 306 309 308 309 310 309 310 310 310 310 310 310 310 311 314 315 317 322 324 324 325 326 326 325 324 323 322 321 321 323 328 329 335 338 336 337
Wind_Speed
18 18 18 18 18 18 19 19 19 19 19 20 19 19 19 21 22 24 31 24 18 19 16 8 17 23 22 14 10 14 4 3 7 3 11 30 16 23 17 30 16 5 30 37 36
20 20 20 20 20 20 20 20 21 20 19 20 21 20 20 22 24 29 22 19 19 18 17 20 22 28 13 16 11 6 3 6 10 5 8 27 34 25 17 26 10 26 32 35 38
21 21 21 21 22 22 22 21 22 22 21 20 20 20 18 20 24 10 7 4 15 25 23 12 14 25 15 18 13 6 6 5 13 4 12 25 31 26 33 15 36 37 38 39 40
25 25 24 23 24 23 23 22 22 22 22 21 20 19 17 15 7 2 2 6 11 24 20 15 23 22 11 11 15 5 10 13 14 28 6 14 28 24 35 21 45 44 46 44 40
26 25 25 25 25 26 24 24 23 23 22 22 21 19 15 12 31 19 10 0 9 18 20 22 23 16 8 10 14 7 7 22 22 20 13 17 24 25 21 37 37 43 46 45 43
26 26 27 27 26 26 26 25 24 23 23 23 21 18 14 12 21 10 16 21 12 12 16 23 14 22 7 9 15 13 13 20 31 24 17 15 18 17 29 39 39 47 47 44 45
30 29 27 26 27 27 27 26 24 24 23 22 21 19 20 40 11 0 9 16 20 18 16 17 27 14 3 1 23 22 7 15 16 27 9 18 6 16 41 45 43 45 42 39 43
33 33 33 30 28 27 26 24 24 23 22 20 19 18 18 22 18 20 23 23 17 21 18 10 19 24 19 15 6 3 2 4 14 17 8 9 11 21 43 43 40 42 39 37 41
32 32 33 33 30 27 27 23 22 18 16 14 12 11 16 12 18 17 22 22 18 22 16 13 16 20 12 2 5 2 4 7 5 13 6 4 5 24 41 38 37 37 39 36 36
31 32 33 31 29 26 25 20 13 9 5 4 7 6 16 13 8 9 28 24 22 20 24 18 10 5 1 4 7 6 3 2 4 17 29 11 5 22 35 36 37 38 38 38 37
34 34 34 32 26 23 19 13 9 3 15 15 16 18 26 15 10 12 27 26 26 20 10 13 5 13 11 7 7 5 7 7 4 7 18 17 14 23 32 30 31 34 37 38 44
33 33 34 32 30 16 7 8 14 15 19 25 33 41 44 36 13 10 24 22 15 8 5 5 12 9 9 7 10 12 15 13 5 3 2 11 16 19 16 30 38 36 35 38 40
33 33 35 33 24 5 11 6 15 20 7 17 31 33 32 29 25 31 17 32 8 7 10 13 7 11 9 10 11 13 17 8 6 3 4 7 2 6 6 6 23 31 40 40 45
31 32 34 37 9 26 7 9 13 11 4 8 7 11 19 15 12 43 28 30 7 18 7 10 14 13 17 14 14 14 15 9 7 5 9 8 5 8 15 12 14 29 35 39 44
28 28 29 28 31 28 18 13 10 2 6 4 5 3 16 19 12 24 39 30 17 9 9 9 18 19 17 18 17 14 10 9 9 6 3 3 3 6 10 19 13 22 36 43 46
31 26 26 24 32 14 20 9 2 4 8 7 6 6 7 7 3 9 26 27 12 13 9 19 17 15 19 14 17 11 8 6 4 4 10 13 13 6 9 10 20 22 37 41 42
35 32 22 26 26 21 19 10 3 5 5 2 6 8 6 7 7 3 19 17 15 12 17 10 17 9 9 10 10 11 6 5 5 6 10 11 11 12 19 13 21 25 36 37 46
36 35 29 24 27 22 7 3 6 5 9 9 12 9 5 3 7 6 5 20 17 4 7 11 9 16 11 18 14 10 16 9 8 4 5 6 9 10 12 20 38 44 46 41 47
35 35 30 25 12 7 5 4 7 6 6 14 12 5 6 5 12 6 15 11 19 17 10 8 10 4 15 14 19 10 11 11 7 3 2 4 7 8 12 8 19 36 36 40 48
33 29 27 16 8 9 2 4 5 4 14 10 3 4 9 14 11 17 5 10 13 14 10 7 3 11 22 9 17 19 7 5 1 12 15 5 7 6 8 14 17 24 33 43 47
27 13 21 5 21 10 7 7 5 27 15 8 15 15 15 12 7 9 11 15 5 10 20 20 9 10 4 13 16 8 11 3 6 9 13 8 15 8 10 12 14 21 44 45 43
12 4 18 20 7 3 7 7 16 20 29 13 11 16 10 10 14 10 12 10 24 18 13 9 12 16 26 9 12 21 16 13 11 8 5 16 19 3 10 10 15 24 37 42 38
16 15 22 19 4 6 9 10 9 10 9 6 5 5 5 4 7 7 12 9 24 14 7 8 10 11 8 12 12 8 12 18 6 4 20 7 2 9 6 5 14 15 17 25 35
7 4 8 8 9 11 11 6 11 17 7 11 6 4 8 3 4 9 11 11 30 19 23 13 6 12 21 11 6 7 17 13 17 12 11 21 5 6 1 7 9 25 32 34 37
3 4 6 4 6 10 8 5 11 8 10 7 5 6 6 4 5 4 7 16 13 10 15 6 6 5 10 16 19 11 11 22 22 21 20 8 10 10 9 9 9 24 28 40 44
4 5 7 8 10 5 5 3 7 8 5 6 7 9 5 3 7 12 14 9 5 8 10 4 5 7 7 12 23 22 19 21 17 21 19 8 8 10 14 19 14 21 31 33 29
11 17 11 6 3 3 3 8 14 11 9 12 13 8 10 13 14 23 26 27 14 6 6 4 3 7 6 6 18 17 33 16 12 9 10 11 8 9 8 8 12 18 27 29 36
Wind_Direction
335 331 326 322 319 316 314 311 309 308 306 306 305 305 304 299 293 285 272 267 257 239 239 164 152 149 143 136 150 156 158 291 324 140 134 146 134 148 135 139 155 217 156 153 156
336 332 328 323 320 317 314 311 309 307 305 305 305 306 309 304 300 288 291 269 244 225 199 191 169 160 177 159 171 194 139 228 208 243 174 152 149 144 138 155 139 121 146 154 161
337 333 329 325 321 317 315 312 309 307 305 303 302 304 308 308 311 297 21 284 214 201 202 199 190 171 196 172 199 217 180 215 295 246 135 143 147 150 148 175 154 152 159 162 165
338 335 332 327 323 318 313 311 308 306 303 301 298 300 302 300 279 72 4 54 184 182 195 196 201 205 174 208 190 185 229 229 256 264 156 158 147 162 163 180 164 158 156 161 172
334 331 329 327 324 320 315 310 307 305 302 299 296 295 293 271 259 255 257 161 169 194 206 196 208 204 196 195 186 231 162 202 219 211 142 194 183 172 189 158 163 161 160 164 173
333 329 327 325 322 319 316 312 308 304 300 296 291 289 277 246 289 277 228 237 233 215 214 205 212 215 256 211 192 221 222 220 225 244 167 188 194 142 160 159 158 165 169 171 177
335 332 329 324 321 317 314 311 310 304 294 291 287 283 263 251 259 338 232 231 238 229 227 228 218 206 191 322 235 237 271 269 246 213 205 174 109 148 157 158 163 171 174 179 184
337 335 332 331 327 319 314 312 311 299 291 283 278 275 258 281 268 248 241 237 230 234 239 233 212 227 247 266 308 181 152 236 271 153 165 132 176 159 162 163 164 174 179 182 191
337 334 331 332 333 323 316 320 310 303 293 281 267 254 268 266 247 227 214 212 205 216 227 220 214 225 235 215 358 8 206 207 283 196 126 185 196 169 167 167 170 175 180 181 190
340 337 332 332 333 325 321 330 316 316 349 289 212 284 254 252 306 242 203 201 212 225 230 215 219 189 118 119 214 224 237 235 169 152 179 187 175 169 173 172 173 179 182 186 191
343 340 335 335 334 325 329 8 2 325 316 269 265 247 274 274 287 275 196 199 216 225 189 195 177 223 213 193 226 233 259 252 306 214 176 185 171 167 178 180 183 185 183 187 190
342 340 335 335 333 321 329 22 8 320 293 280 257 253 255 255 301 247 195 191 191 201 153 240 223 202 190 201 218 238 250 260 271 181 57 189 180 180 173 185 187 186 189 192 195
341 340 337 336 338 347 332 351 340 338 270 282 247 241 238 233 232 240 203 197 176 191 205 215 235 190 196 215 224 230 230 225 207 234 123 118 16 238 248 207 194 197 192 195 196
337 337 337 336 347 336 347 296 324 338 314 274 230 245 208 198 222 226 213 192 186 201 196 227 232 211 211 222 210 239 231 221 230 237 226 160 232 201 227 244 187 195 198 201 201
333 333 330 335 322 327 314 315 310 2 310 219 225 273 179 174 156 207 216 192 182 175 165 218 195 219 215 216 217 241 234 206 215 225 137 284 161 248 190 223 219 202 200 205 204
335 332 323 321 313 334 322 331 354 47 246 289 188 147 140 237 251 191 179 207 201 196 214 219 240 200 215 223 221 228 256 235 208 160 234 219 201 245 203 200 217 210 206 206 206
331 330 325 302 291 312 313 322 74 207 311 295 359 345 296 170 233 146 185 193 198 187 211 228 231 233 185 204 224 198 154 246 245 221 232 203 218 220 210 202 203 205 209 207 205
327 328 324 291 295 294 273 66 215 243 253 47 339 309 218 56 235 218 164 206 209 152 191 201 242 215 215 207 209 203 205 204 211 212 216 202 219 239 228 209 200 210 212 207 205
329 330 321 332 322 194 183 188 206 218 23 351 349 352 349 5 11 330 213 206 210 190 185 186 237 264 209 220 195 219 206 198 196 209 308 214 259 291 241 210 215 211 207 205 205
335 337 312 352 12 258 140 244 237 338 2 349 311 294 360 354 333 3 313 244 218 206 194 220 278 218 239 213 240 209 180 204 226 217 241 255 230 221 212 219 196 207 207 204 201
341 323 316 266 303 211 220 212 285 289 327 355 317 293 296 308 306 310 269 311 279 228 209 214 205 238 202 222 215 200 210 232 183 196 226 242 248 197 235 212 208 203 201 200 192
352 306 300 352 10 272 225 187 248 267 284 283 283 287 300 337 294 266 247 220 304 310 312 261 216 232 235 208 201 220 215 196 220 243 245 227 237 242 198 223 195 199 203 202 189
323 283 340 347 4 4 341 345 9 8 340 346 303 37 339 342 307 278 248 256 15 11 318 321 222 229 272 255 240 205 223 217 147 135 226 207 215 203 228 181 204 211 211 196 198
312 316 323 356 28 6 4 341 338 336 326 360 316 326 355 27 305 305 328 334 344 338 343 333 244 242 232 215 177 196 224 217 215 215 215 235 199 291 182 188 225 209 203 193 201
275 268 315 316 342 335 316 283 315 335 355 7 329 353 343 309 305 284 336 327 327 329 350 20 281 265 275 240 206 189 194 217 215 222 212 186 193 228 236 199 221 241 214 204 205
257 304 315 290 296 322 316 21 334 324 305 306 312 332 308 246 272 297 309 312 254 318 340 329 285 333 258 244 225 220 223 231 221 220 231 160 212 186 231 219 208 228 215 212 218
273 294 257 276 287 308 259 343 308 311 287 316 292 288 282 279 279 283 278 267 241 267 286 271 321 345 276 218 214 233 221 205 215 206 193 210 192 184 201 200 204 215 217 222 218